Location: *
(60.1759°S, 155.0663°W)
Time: 22:32:25
(UTC+00:00)

Cosmos 968 Rocket - Pass Details

Date: 17 September 2019
Orbit: 740 x 771 km, 74.0° (Epoch: 17 October)

Event Time Altitude Azimuth Distance (km) Brightness Sun altitude
Exits shadow 13:55:36 31° 274° (W) 1,341 4.3 -18.5°
Maximum altitude 13:57:36 45° 224° (SW) 1,058 4.1 -18.3°
Drops below altitude 10° 14:02:41 10° 151° (SSE) 2,327 6.9 -17.7°
Sets 14:05:11 0° 144° (SE) 3,252 7.9 -17.5°
